E1646 Weather Reports


time (UTC)temp
C
wind
direction
speed
KPH
gust
KPH
rain 1hr
cm
rain 24hr
cm
rain mn
cm
humidity
%
barometer
mb
20260503033101 6 17 4.8 12.9 0.00 0.05 0.05 60 1011.7
20260503031552 6 30 6.4 12.9 0.00 0.05 0.05 57 1011.8
20260503030053 6 17 4.8 11.3 0.00 0.05 0.05 56 1011.8
20260503024538 7 5 9.7 16.1 0.00 0.05 0.05 54 1011.7
20260503023033 7 344 4.8 8.0 0.00 0.05 0.05 53 1012.0
20260503021531 7 358 4.8 9.7 0.00 0.05 0.05 52 1012.0
20260503020020 8 343 8.0 22.5 0.00 0.05 0.05 49 1012.1
20260503014517 8 34 8.0 16.1 0.00 0.05 0.05 48 1012.0
20260503013013 8 10 6.4 12.9 0.00 0.05 0.05 48 1012.1
20260503011508 8 8 3.2 9.7 0.00 0.05 0.05 49 1011.9
20260503010006 8 342 3.2 6.4 0.00 0.05 0.05 49 1011.8
20260503004504 8 345 1.6 6.4 0.00 0.05 0.05 49 1011.6
20260503003100 8 339 3.2 8.0 0.00 0.05 0.05 48 1011.6
20260503001554 8 342 4.8 12.9 0.00 0.05 0.05 46 1011.4
20260503000047 9 342 4.8 14.5 0.00 0.05 0.05 46 1011.3
20260502234541 10 332 8.0 17.7 0.00 0.05 0.05 44 1011.2
20260502233036 10 5 9.7 20.9 0.00 0.05 0.05 44 1011.1
20260502231531 10 20 9.7 17.7 0.00 0.05 0.05 44 1011.0
20260502230023 10 19 8.0 19.3 0.00 0.05 0.05 43 1010.9
20260502224619 10 349 8.0 19.3 0.00 0.05 0.05 43 1010.8
20260502223011 10 20 11.3 27.4 0.00 0.05 0.05 43 1010.7
20260502221505 11 325 9.7 17.7 0.00 0.05 0.05 42 1010.5
20260502220105 11 308 11.3 19.3 0.00 0.05 0.05 42 1010.4
20260502214552 11 357 8.0 17.7 0.00 0.05 0.05 41 1010.3
20260502213046 12 357 8.0 22.5 0.00 0.05 0.05 40 1010.2
20260502211546 12 5 9.7 19.3 0.00 0.05 0.05 40 1010.1
20260502210034 11 343 9.7 20.9 0.00 0.05 0.05 43 1010.1
20260502204528 11 345 3.2 9.7 0.00 0.05 0.05 52 1010.0
20260502203023 11 338 1.6 8.0 0.00 0.05 0.05 58 1010.0
20260502201516 12 352 9.7 29.0 0.00 0.05 0.05 41 1010.1
20260502200010 11 321 1.6 11.3 0.00 0.05 0.05 52 1010.3
20260502194505 11 342 1.6 14.5 0.00 0.05 0.05 51 1010.5
20260502193102 12 346 4.8 12.9 0.00 0.05 0.05 55 1010.7
20260502191556 11 23 3.2 12.9 0.00 0.05 0.05 60 1010.9
20260502190101 12 18 4.8 11.3 0.00 0.05 0.05 49 1011.0
20260502184550 11 312 0.0 12.9 0.00 0.05 0.05 64 1011.1
20260502183037 11 23 4.8 9.7 0.00 0.05 0.05 59 1011.3
20260502181530 11 343 9.7 17.7 0.00 0.05 0.05 66 1011.1
20260502163150 8 19 8.0 14.5 0.00 0.05 0.05 77 1011.9
20260502161544 7 341 8.0 16.1 0.00 0.05 0.05 80 1011.9
20260502151521 8 23 11.3 19.3 0.00 0.05 0.05 78 1012.0
20260502123012 7 210 1.6 8.0 0.00 0.05 0.05 37 1012.1
20260502121506 7 323 0.0 9.7 0.00 0.05 0.05 21 1012.1
20260502120104 7 222 1.6 8.0 0.00 0.05 0.05 22 1012.0
20260502114555 6 271 1.6 8.0 0.00 0.05 0.05 1 1012.1
20260502113049 6 258 1.6 6.4 0.00 0.05 0.05 11 1012.1
20260502111553 6 224 3.2 8.0 0.00 0.05 0.05 15 1012.0
20260502110037 6 257 0.0 4.8 0.00 0.05 0.05 8 1011.5
20260502104541 6 154 1.6 0.0 0.00 0.05 0.05 1 1011.3
20260502103027 -17 0.0 0.0 0.00 0.05 0.05 1011.2
20260502101522 -17 0.0 0.0 0.00 0.05 0.05 1011.2
20260502091503 -17 0.0 0.0 0.00 0.05 0.05 1011.0
20260502071522 -17 0.0 0.0 0.00 0.05 0.05 1011.8
20260502070022 6 328 3.2 12.9 0.00 0.05 0.05 58 1012.0
20260502064526 7 5 4.8 12.9 0.00 0.05 0.05 63 1011.9
20260502063011 7 70 0.0 9.7 0.00 0.05 0.05 74 1011.9
20260502061507 7 334 3.2 11.3 0.00 0.05 0.05 78 1011.9
20260502060006 7 16 1.6 8.0 0.05 0.05 0.05 79 1011.9
20260502054500 7 103 0.0 1.6 0.05 0.05 0.05 81 1011.9
20260502053106 7 103 1.6 1.6 0.05 0.05 0.05 81 1011.7
20260502051600 8 188 0.0 4.8 0.05 0.05 0.05 80 1012.1
20260502050055 8 159 0.0 3.2 0.00 0.00 0.00 74 1012.1
20260502044544 9 128 0.0 1.6 0.00 0.00 0.00 74 1011.7
20260502043039 10 323 0.0 0.0 0.00 0.00 0.00 68 1011.6
20260502041538 10 323 0.0 3.2 0.00 0.00 0.00 66 1011.9
20260502040032 10 117 0.0 1.6 0.00 0.00 0.00 66 1011.7
20260502034533 10 115 0.0 3.2 0.00 0.00 0.00 67 1011.7